,,Stat6,,Stat2,,Stat8,,Stat9,,Stat10,,Wind1,,Wind1,
time,status,PA1M_AVG,status,PR1M_SUM,status,RH1M_AVG,status,SR1M_AVG,status,TA1M_AVG,status,W1dAve1m,status,W1sAve1m,
2004-06-13, 00:00:00,VALID,918.547,VALID,0,VALID,92.4889,VALID,0,VALID,18.6405,VALID,113,VALID,1.66006,
2004-06-13, 00:01:00,VALID,918.557,VALID,0,VALID,91.9586,VALID,0,VALID,18.7182,VALID,117,VALID,1.46309,
2004-06-13, 00:02:00,VALID,918.564,VALID,0,VALID,91.6102,VALID,0.0169808,VALID,18.7405,VALID,120,VALID,1.36573,
2004-06-13, 00:03:00,VALID,918.568,VALID,0,VALID,91.5962,VALID,0.0169808,VALID,18.7117,VALID,109,VALID,1.01246,
2004-06-13, 00:04:00,VALID,918.566,VALID,0,VALID,91.717,VALID,0.0169808,VALID,18.6566,VALID,105,VALID,0.942454,
2004-06-13, 00:05:00,VALID,918.557,VALID,0,VALID,91.9179,VALID,0.0169808,VALID,18.6372,VALID,110,VALID,1.28252,
2004-06-13, 00:06:00,VALID,918.536,VALID,0,VALID,91.5555,VALID,-0.0339617,VALID,18.6315,VALID,104,VALID,0.980469,
2004-06-13, 00:07:00,VALID,918.533,VALID,0,VALID,91.0736,VALID,0,VALID,18.5888,VALID,99,VALID,0.699033,
2004-06-13, 00:08:00,VALID,918.518,VALID,0,VALID,91.6306,VALID,0,VALID,18.4922,VALID,103,VALID,0.814098,
2004-06-13, 00:09:00,VALID,918.507,VALID,0,VALID,92.3541,VALID,0,VALID,18.4567,VALID,113,VALID,1.3484,
2004-06-13, 00:10:00,VALID,918.497,VALID,0,VALID,92.1506,VALID,-0.0169808,VALID,18.4959,VALID,106,VALID,1.37873,
2004-06-13, 00:11:00,VALID,918.491,VALID,0,VALID,91.7628,VALID,-0.0339617,VALID,18.548,VALID,105,VALID,1.30885,
2004-06-13, 00:12:00,VALID,918.511,VALID,0,VALID,91.5034,VALID,-0.0169808,VALID,18.5992,VALID,107,VALID,1.28675,
2004-06-13, 00:13:00,VALID,918.514,VALID,0,VALID,91.3495,VALID,-0.0169808,VALID,18.6087,VALID,93,VALID,1.14618,
2004-06-13, 00:14:00,VALID,918.511,VALID,0,VALID,91.4703,VALID,-0.0169808,VALID,18.602,VALID,96,VALID,0.914063,
2004-06-13, 00:15:00,VALID,918.522,VALID,0,VALID,91.5911,VALID,0,VALID,18.5928,VALID,112,VALID,1.32559,
2004-06-13, 00:16:00,VALID,918.499,VALID,0,VALID,91.6026,VALID,-0.0169808,VALID,18.593,VALID,108,VALID,1.34606,
2004-06-13, 00:17:00,VALID,918.501,VALID,0,VALID,91.6242,VALID,0,VALID,18.5637,VALID,115,VALID,1.31559,
2004-06-13, 00:18:00,VALID,918.497,VALID,0,VALID,91.7068,VALID,0,VALID,18.5215,VALID,118,VALID,1.00191,
2004-06-13, 00:19:00,VALID,918.498,VALID,0,VALID,91.9154,VALID,0,VALID,18.4408,VALID,122,VALID,1.36828,
2004-06-13, 00:20:00,VALID,918.465,VALID,0,VALID,92.6097,VALID,0.0169808,VALID,18.3928,VALID,116,VALID,1.49941,
2004-06-13, 00:21:00,VALID,918.441,VALID,0,VALID,92.9416,VALID,-0.0169808,VALID,18.3852,VALID,100,VALID,1.45517,
2004-06-13, 00:22:00,VALID,918.422,VALID,0,VALID,92.8793,VALID,0,VALID,18.4343,VALID,97,VALID,1.20926,
2004-06-13, 00:23:00,VALID,918.414,VALID,0,VALID,92.5537,VALID,0,VALID,18.4572,VALID,114,VALID,1.09593,
2004-06-13, 00:24:00,VALID,918.41,VALID,0,VALID,92.4889,VALID,0,VALID,18.4219,VALID,117,VALID,0.886719,
2004-06-13, 00:25:00,VALID,918.405,VALID,0,VALID,92.7903,VALID,0,VALID,18.3668,VALID,118,VALID,0.95484,
2004-06-13, 00:26:00,VALID,918.392,VALID,0,VALID,93.1895,VALID,0,VALID,18.3278,VALID,113,VALID,1.02362,
2004-06-13, 00:27:00,VALID,918.377,VALID,0,VALID,93.2315,VALID,-0.0169808,VALID,18.2953,VALID,127,VALID,1.04467,
2004-06-13, 00:28:00,VALID,918.368,VALID,0,VALID,93.3828,VALID,-0.0339617,VALID,18.2801,VALID,118,VALID,1.15301,
2004-06-13, 00:29:00,VALID,918.341,VALID,0,VALID,93.702,VALID,-0.0509425,VALID,18.2473,VALID,109,VALID,0.930959,
2004-06-13, 00:30:00,VALID,918.34,VALID,0,VALID,93.5202,VALID,0,VALID,18.2506,VALID,102,VALID,0.548828,
2004-06-13, 00:31:00,VALID,918.342,VALID,0,VALID,93.5532,VALID,-0.0169808,VALID,18.2282,VALID,101,VALID,0.529154,
2004-06-13, 00:32:00,VALID,918.344,VALID,0,VALID,93.5303,VALID,0,VALID,18.1798,VALID,101,VALID,0.476563,
2004-06-13, 00:33:00,VALID,918.335,VALID,0,VALID,93.8406,VALID,0,VALID,18.1115,VALID,101,VALID,0.690589,
2004-06-13, 00:34:00,VALID,918.327,VALID,0,VALID,94.3569,VALID,-0.0169808,VALID,18.0604,VALID,105,VALID,0.844113,
2004-06-13, 00:35:00,VALID,918.323,VALID,0,VALID,94.8388,VALID,0,VALID,18.038,VALID,99,VALID,1.18255,
2004-06-13, 00:36:00,VALID,918.324,VALID,0,VALID,94.1356,VALID,-0.0169808,VALID,18.0993,VALID,89,VALID,0.98457,
2004-06-13, 00:37:00,VALID,918.307,VALID,0,VALID,93.2544,VALID,-0.0509425,VALID,18.1088,VALID,90,VALID,0.835565,
2004-06-13, 00:38:00,VALID,918.292,VALID,0,VALID,93.4973,VALID,-0.0679233,VALID,18.0504,VALID,115,VALID,0.872638,
2004-06-13, 00:39:00,VALID,918.268,VALID,0,VALID,94.1458,VALID,-0.0169808,VALID,18.0191,VALID,122,VALID,1.17129,
2004-06-13, 00:40:00,VALID,918.263,VALID,0,VALID,94.5069,VALID,-0.0169808,VALID,17.9893,VALID,116,VALID,1.34443,
2004-06-13, 00:41:00,VALID,918.26,VALID,0,VALID,94.6493,VALID,-0.0339617,VALID,18.0025,VALID,116,VALID,1.12734,
2004-06-13, 00:42:00,VALID,918.258,VALID,0,VALID,94.0428,VALID,-0.0339617,VALID,18.0154,VALID,115,VALID,0.559837,
2004-06-13, 00:43:00,VALID,918.249,VALID,0,VALID,93.8635,VALID,-0.0339617,VALID,17.9799,VALID,115,VALID,0.606585,
2004-06-13, 00:44:00,VALID,918.211,VALID,0,VALID,94.2768,VALID,-0.0169808,VALID,17.9603,VALID,129,VALID,1.01926,
2004-06-13, 00:45:00,VALID,918.184,VALID,0,VALID,94.2361,VALID,-0.0339617,VALID,17.97,VALID,124,VALID,1.09233,
2004-06-13, 00:46:00,VALID,918.154,VALID,0,VALID,94.1547,VALID,-0.0679233,VALID,17.9829,VALID,118,VALID,1.0127,
2004-06-13, 00:47:00,VALID,918.142,VALID,0,VALID,94.1382,VALID,-0.0339617,VALID,18.0025,VALID,118,VALID,1.0426,
2004-06-13, 00:48:00,VALID,918.126,VALID,0,VALID,93.8126,VALID,-0.0679233,VALID,18.0152,VALID,116,VALID,0.838118,
2004-06-13, 00:49:00,VALID,918.12,VALID,0,VALID,93.4731,VALID,-0.0339617,VALID,18.0315,VALID,107,VALID,0.851385,
2004-06-13, 00:50:00,VALID,918.109,VALID,0,VALID,92.747,VALID,-0.0339617,VALID,18.0414,VALID,109,VALID,0.504092,
2004-06-13, 00:51:00,VALID,918.101,VALID,0,VALID,92.3032,VALID,-0.0679233,VALID,18.0264,VALID,113,VALID,0.668945,
2004-06-13, 00:52:00,VALID,918.086,VALID,0,VALID,92.2778,VALID,-0.0679233,VALID,17.9778,VALID,120,VALID,0.861861,
2004-06-13, 00:53:00,VALID,918.077,VALID,0,VALID,93.1578,VALID,-0.0679233,VALID,17.952,VALID,128,VALID,1.02072,
2004-06-13, 00:54:00,VALID,918.06,VALID,0,VALID,93.3637,VALID,-0.0849042,VALID,17.949,VALID,122,VALID,1.07236,
2004-06-13, 00:55:00,VALID,918.053,VALID,0,VALID,93.3574,VALID,-0.0849042,VALID,17.9485,VALID,125,VALID,1.43448,
2004-06-13, 00:56:00,VALID,918.038,VALID,0,VALID,93.1806,VALID,-0.0849042,VALID,17.9582,VALID,131,VALID,1.05913,
2004-06-13, 00:57:00,VALID,918.023,VALID,0,VALID,93.0764,VALID,-0.0849042,VALID,17.9778,VALID,129,VALID,0.942383,
2004-06-13, 00:58:00,VALID,918.02,VALID,0,VALID,93.145,VALID,-0.0849042,VALID,17.9815,VALID,121,VALID,1.14226,
2004-06-13, 00:59:00,VALID,917.998,VALID,0,VALID,93.1819,VALID,-0.0509425,VALID,17.9651,VALID,116,VALID,1.11047,
2004-06-13, 01:00:00,VALID,917.985,VALID,0,VALID,92.3299,VALID,-0.0679233,VALID,17.9455,VALID,102,VALID,0.551067,
2004-06-13, 01:01:00,VALID,917.966,VALID,0,VALID,90.818,VALID,-0.101885,VALID,17.7809,VALID,77,VALID,0.585938,
2004-06-13, 01:02:00,VALID,917.952,VALID,0,VALID,91.9917,VALID,-0.101885,VALID,17.5909,VALID,64,VALID,0.632612,
2004-06-13, 01:03:00,VALID,917.926,VALID,0,VALID,93.0039,VALID,-0.0679233,VALID,17.4745,VALID,64,VALID,0.398983,
2004-06-13, 01:04:00,VALID,917.908,VALID,0,VALID,93.7376,VALID,-0.101885,VALID,17.4099,VALID,64,VALID,0.165879,
2004-06-13, 01:05:00,VALID,917.905,VALID,0,VALID,94.5883,VALID,-0.0849042,VALID,17.348,VALID,64,VALID,0.168605,
2004-06-13, 01:06:00,VALID,917.91,VALID,0,VALID,94.7117,VALID,-0.101885,VALID,17.3228,VALID,64,VALID,0.406068,
2004-06-13, 01:07:00,VALID,917.913,VALID,0,VALID,95.2394,VALID,-0.101885,VALID,17.255,VALID,78,VALID,0.664249,
2004-06-13, 01:08:00,VALID,917.911,VALID,0,VALID,96.263,VALID,-0.101885,VALID,17.2322,VALID,90,VALID,0.662287,
2004-06-13, 01:09:00,VALID,917.913,VALID,0,VALID,96.9675,VALID,-0.0849042,VALID,17.255,VALID,110,VALID,0.722124,
2004-06-13, 01:10:00,VALID,917.925,VALID,0,VALID,96.2745,VALID,-0.0679233,VALID,17.2613,VALID,113,VALID,0.3625,
2004-06-13, 01:11:00,VALID,917.919,VALID,0,VALID,95.9807,VALID,-0.101885,VALID,17.2129,VALID,113,VALID,0.635174,
2004-06-13, 01:12:00,VALID,917.891,VALID,0,VALID,96.3342,VALID,-0.101885,VALID,17.1842,VALID,130,VALID,1.12329,
2004-06-13, 01:13:00,VALID,917.891,VALID,0,VALID,96.6661,VALID,-0.0679233,VALID,17.1614,VALID,130,VALID,1.31585,
2004-06-13, 01:14:00,VALID,917.873,VALID,0,VALID,96.3546,VALID,-0.101885,VALID,17.1517,VALID,126,VALID,1.33966,
2004-06-13, 01:15:00,VALID,917.87,VALID,0,VALID,96.8123,VALID,-0.0849042,VALID,17.152,VALID,122,VALID,1.38033,
2004-06-13, 01:16:00,VALID,917.871,VALID,0,VALID,97.0603,VALID,-0.101885,VALID,17.2329,VALID,115,VALID,0.977289,
2004-06-13, 01:17:00,VALID,917.875,VALID,0,VALID,96.9586,VALID,-0.0849042,VALID,17.2811,VALID,118,VALID,1.2207,
2004-06-13, 01:18:00,VALID,917.869,VALID,0,VALID,96.5644,VALID,-0.101885,VALID,17.3299,VALID,120,VALID,1.21999,
2004-06-13, 01:19:00,VALID,917.881,VALID,0,VALID,96.4563,VALID,-0.0849042,VALID,17.3327,VALID,120,VALID,1.16992,
2004-06-13, 01:20:00,VALID,917.87,VALID,0,VALID,96.2694,VALID,-0.101885,VALID,17.3138,VALID,126,VALID,1.18441,
2004-06-13, 01:21:00,VALID,917.848,VALID,0,VALID,96.5555,VALID,-0.101885,VALID,17.2811,VALID,119,VALID,1.66733,
2004-06-13, 01:22:00,VALID,917.816,VALID,0,VALID,96.731,VALID,-0.101885,VALID,17.2843,VALID,106,VALID,1.36172,
2004-06-13, 01:23:00,VALID,917.787,VALID,0,VALID,96.7958,VALID,-0.0849042,VALID,17.3391,VALID,105,VALID,1.33293,
2004-06-13, 01:24:00,VALID,917.779,VALID,0,VALID,96.0735,VALID,-0.0849042,VALID,17.4489,VALID,108,VALID,1.53032,
2004-06-13, 01:25:00,VALID,917.752,VALID,0,VALID,95.0385,VALID,-0.0849042,VALID,17.5558,VALID,106,VALID,1.39933,
2004-06-13, 01:26:00,VALID,917.743,VALID,0,VALID,94.3442,VALID,-0.0849042,VALID,17.6395,VALID,111,VALID,1.46189,
2004-06-13, 01:27:00,VALID,917.733,VALID,0,VALID,93.9449,VALID,-0.0679233,VALID,17.6882,VALID,119,VALID,1.15625,
2004-06-13, 01:28:00,VALID,917.742,VALID,0,VALID,93.7071,VALID,-0.0509425,VALID,17.6905,VALID,119,VALID,1.28979,
2004-06-13, 01:29:00,VALID,917.732,VALID,0,VALID,93.2925,VALID,-0.0679233,VALID,17.6907,VALID,125,VALID,1.25038,
2004-06-13, 01:30:00,VALID,917.706,VALID,0,VALID,93.3269,VALID,-0.0849042,VALID,17.6847,VALID,117,VALID,1.55273,
2004-06-13, 01:31:00,VALID,917.674,VALID,0,VALID,93.3879,VALID,-0.101885,VALID,17.6746,VALID,107,VALID,1.61071,
2004-06-13, 01:32:00,VALID,917.633,VALID,0,VALID,93.248,VALID,-0.101885,VALID,17.7336,VALID,103,VALID,1.24945,
2004-06-13, 01:33:00,VALID,917.61,VALID,0,VALID,92.8335,VALID,-0.101885,VALID,17.7753,VALID,107,VALID,1.40359,
2004-06-13, 01:34:00,VALID,917.584,VALID,0,VALID,92.377,VALID,-0.0849042,VALID,17.7747,VALID,112,VALID,1.35789,
2004-06-13, 01:35:00,VALID,917.57,VALID,0,VALID,92.2346,VALID,-0.0849042,VALID,17.7751,VALID,115,VALID,1.50815,
2004-06-13, 01:36:00,VALID,917.563,VALID,0,VALID,91.717,VALID,-0.0679233,VALID,17.7557,VALID,112,VALID,1.47905,
2004-06-13, 01:37:00,VALID,917.561,VALID,0,VALID,91.244,VALID,-0.0849042,VALID,17.759,VALID,119,VALID,1.37264,
2004-06-13, 01:38:00,VALID,917.578,VALID,0,VALID,90.7481,VALID,-0.0679233,VALID,17.7684,VALID,116,VALID,1.1746,
2004-06-13, 01:39:00,VALID,917.568,VALID,0,VALID,90.3806,VALID,-0.0679233,VALID,17.8203,VALID,126,VALID,1.44398,
2004-06-13, 01:40:00,VALID,917.552,VALID,0,VALID,90.3768,VALID,-0.118866,VALID,17.8072,VALID,129,VALID,1.4096,
2004-06-13, 01:41:00,VALID,917.524,VALID,0,VALID,90.7201,VALID,-0.118866,VALID,17.782,VALID,126,VALID,1.41806,
2004-06-13, 01:42:00,VALID,917.503,VALID,0,VALID,91.2453,VALID,-0.0849042,VALID,17.7071,VALID,119,VALID,1.4135,
2004-06-13, 01:43:00,VALID,917.494,VALID,0,VALID,91.3508,VALID,-0.101885,VALID,17.6492,VALID,118,VALID,1.24291,
2004-06-13, 01:44:00,VALID,917.483,VALID,0,VALID,91.277,VALID,-0.0849042,VALID,17.6167,VALID,121,VALID,1.3032,
2004-06-13, 01:45:00,VALID,917.501,VALID,0,VALID,91.1957,VALID,-0.101885,VALID,17.6333,VALID,115,VALID,1.24963,
2004-06-13, 01:46:00,VALID,917.51,VALID,0,VALID,91.0596,VALID,-0.101885,VALID,17.6725,VALID,120,VALID,1.28303,
2004-06-13, 01:47:00,VALID,917.524,VALID,0,VALID,91.0583,VALID,-0.101885,VALID,17.6946,VALID,117,VALID,1.20058,
2004-06-13, 01:48:00,VALID,917.527,VALID,0,VALID,91.1486,VALID,-0.101885,VALID,17.7228,VALID,118,VALID,1.33734,
2004-06-13, 01:49:00,VALID,917.526,VALID,0,VALID,91.0939,VALID,-0.101885,VALID,17.7656,VALID,123,VALID,1.23419,
2004-06-13, 01:50:00,VALID,917.502,VALID,0,VALID,91.1601,VALID,-0.0509425,VALID,17.8136,VALID,115,VALID,1.48456,
2004-06-13, 01:51:00,VALID,917.471,VALID,0,VALID,90.9744,VALID,0.0339617,VALID,17.8277,VALID,123,VALID,1.39861,
2004-06-13, 01:52:00,VALID,917.449,VALID,0,VALID,90.9922,VALID,0.0169808,VALID,17.8409,VALID,127,VALID,1.2877,
2004-06-13, 01:53:00,VALID,917.438,VALID,0,VALID,91.0164,VALID,0.0169808,VALID,17.8051,VALID,124,VALID,1.18545,
2004-06-13, 01:54:00,VALID,917.413,VALID,0,VALID,91.1194,VALID,0,VALID,17.7542,VALID,124,VALID,0.802782,
2004-06-13, 01:55:00,VALID,917.383,VALID,0,VALID,91.4258,VALID,0.0339617,VALID,17.6763,VALID,122,VALID,0.833576,
2004-06-13, 01:56:00,VALID,917.341,VALID,0,VALID,91.6941,VALID,0,VALID,17.6154,VALID,121,VALID,0.698933,
2004-06-13, 01:57:00,VALID,917.315,VALID,0,VALID,91.8175,VALID,0,VALID,17.508,VALID,117,VALID,0.494978,
2004-06-13, 01:58:00,VALID,917.289,VALID,0,VALID,91.9535,VALID,0.0339617,VALID,17.4086,VALID,117,VALID,0.354883,
2004-06-13, 01:59:00,VALID,917.297,VALID,0,VALID,92.6491,VALID,0.0169808,VALID,17.2795,VALID,117,VALID,0.355291,
2004-06-13, 02:00:00,VALID,917.29,VALID,0,VALID,93.6906,VALID,0.0339617,VALID,17.186,VALID,117,VALID,0.457667,
2004-06-13, 02:01:00,VALID,917.269,VALID,0,VALID,94.1254,VALID,0.0509425,VALID,17.1182,VALID,117,VALID,0.464753,
2004-06-13, 02:02:00,VALID,917.247,VALID,0,VALID,93.8482,VALID,0.0169808,VALID,16.9923,VALID,117,VALID,0.317454,
2004-06-13, 02:03:00,VALID,917.225,VALID,0,VALID,93.8953,VALID,0.0509425,VALID,16.8538,VALID,109,VALID,0.398624,
2004-06-13, 02:04:00,VALID,917.211,VALID,0,VALID,94.5196,VALID,0.0339617,VALID,16.7632,VALID,85,VALID,0.534299,
2004-06-13, 02:05:00,VALID,917.22,VALID,0,VALID,94.6786,VALID,0,VALID,16.6733,VALID,77,VALID,0.531822,
2004-06-13, 02:06:00,VALID,917.204,VALID,0,VALID,95.4212,VALID,-0.0679233,VALID,16.6354,VALID,75,VALID,0.466933,
2004-06-13, 02:07:00,VALID,917.195,VALID,0,VALID,95.0308,VALID,-0.101885,VALID,16.5586,VALID,75,VALID,0.443892,
2004-06-13, 02:08:00,VALID,917.155,VALID,0,VALID,95.4873,VALID,-0.101885,VALID,16.481,VALID,75,VALID,0.535689,
2004-06-13, 02:09:00,VALID,917.124,VALID,0,VALID,96.6216,VALID,-0.101885,VALID,16.4741,VALID,75,VALID,0.564648,
2004-06-13, 02:10:00,VALID,917.102,VALID,0,VALID,96.4741,VALID,-0.0849042,VALID,16.4646,VALID,75,VALID,0.336138,
2004-06-13, 02:11:00,VALID,917.095,VALID,0,VALID,96.2872,VALID,-0.101885,VALID,16.4063,VALID,75,VALID,0.401105,
2004-06-13, 02:12:00,VALID,917.075,VALID,0,VALID,96.7513,VALID,-0.0849042,VALID,16.3711,VALID,75,VALID,0.572856,
2004-06-13, 02:13:00,VALID,917.073,VALID,0,VALID,97.9275,VALID,-0.101885,VALID,16.4227,VALID,92,VALID,0.858594,
2004-06-13, 02:14:00,VALID,917.082,VALID,0,VALID,98.1157,VALID,-0.0849042,VALID,16.5294,VALID,95,VALID,0.69122,
2004-06-13, 02:15:00,VALID,917.081,VALID,0,VALID,97.4024,VALID,-0.101885,VALID,16.6107,VALID,95,VALID,0.358073,
2004-06-13, 02:16:00,VALID,917.069,VALID,0,VALID,96.3062,VALID,-0.101885,VALID,16.5653,VALID,95,VALID,0.306176,
2004-06-13, 02:17:00,VALID,917.06,VALID,0,VALID,95.6374,VALID,-0.118866,VALID,16.4293,VALID,95,VALID,0.467226,
2004-06-13, 02:18:00,VALID,917.059,VALID,0,VALID,96.394,VALID,-0.101885,VALID,16.3814,VALID,95,VALID,0.514101,
2004-06-13, 02:19:00,VALID,917.047,VALID,0,VALID,97.0298,VALID,-0.101885,VALID,16.3747,VALID,95,VALID,0.0779345,
2004-06-13, 02:20:00,VALID,917.024,VALID,0,VALID,96.9789,VALID,-0.0169808,VALID,16.3809,VALID,95,VALID,0.0823171,
2004-06-13, 02:21:00,VALID,917.01,VALID,0,VALID,96.1816,VALID,0,VALID,16.2827,VALID,95,VALID,0.174733,
2004-06-13, 02:22:00,VALID,916.969,VALID,0,VALID,96.5669,VALID,0.0169808,VALID,16.2021,VALID,95,VALID,0.162202,
2004-06-13, 02:23:00,VALID,916.967,VALID,0,VALID,97.3846,VALID,0,VALID,16.1926,VALID,95,VALID,0.0794922,
2004-06-13, 02:24:00,VALID,916.979,VALID,0,VALID,98.0712,VALID,0.0339617,VALID,16.2347,VALID,95,VALID,0.282584,
2004-06-13, 02:25:00,VALID,916.981,VALID,0,VALID,98.1577,VALID,0.0509425,VALID,16.2835,VALID,95,VALID,0.267299,
2004-06-13, 02:26:00,VALID,916.992,VALID,0,VALID,96.4563,VALID,0,VALID,16.1511,VALID,95,VALID,0.396723,
2004-06-13, 02:27:00,VALID,916.988,VALID,0,VALID,96.3164,VALID,0.0169808,VALID,16.0287,VALID,91,VALID,0.574929,
2004-06-13, 02:28:00,VALID,916.973,VALID,0,VALID,97.63,VALID,0,VALID,16.0317,VALID,75,VALID,0.574128,
2004-06-13, 02:29:00,VALID,916.963,VALID,0,VALID,98.1857,VALID,0,VALID,16.0998,VALID,81,VALID,0.644717,
2004-06-13, 02:30:00,VALID,916.958,VALID,0,VALID,97.1658,VALID,0,VALID,16.0349,VALID,77,VALID,0.616629,
2004-06-13, 02:31:00,VALID,916.944,VALID,0,VALID,97.761,VALID,-0.0169808,VALID,16.0063,VALID,77,VALID,0.535442,
2004-06-13, 02:32:00,VALID,916.933,VALID,0,VALID,98.8227,VALID,0,VALID,16.0936,VALID,95,VALID,0.7371,
2004-06-13, 02:33:00,VALID,916.914,VALID,0,VALID,99.2424,VALID,-0.0169808,VALID,16.2095,VALID,107,VALID,0.654535,
2004-06-13, 02:34:00,VALID,916.909,VALID,0,VALID,98.9346,VALID,-0.0169808,VALID,16.2999,VALID,107,VALID,0.672852,
2004-06-13, 02:35:00,VALID,916.909,VALID,0,VALID,98.0026,VALID,0,VALID,16.287,VALID,107,VALID,0.431836,
2004-06-13, 02:36:00,VALID,916.918,VALID,0,VALID,96.0621,VALID,-0.0169808,VALID,16.1037,VALID,97,VALID,0.523438,
2004-06-13, 02:37:00,VALID,916.929,VALID,0,VALID,96.249,VALID,-0.0509425,VALID,15.9811,VALID,74,VALID,0.609375,
2004-06-13, 02:38:00,VALID,916.933,VALID,0,VALID,96.8314,VALID,0,VALID,15.9424,VALID,74,VALID,0.660974,
2004-06-13, 02:39:00,VALID,916.948,VALID,0,VALID,97.162,VALID,-0.0679233,VALID,15.8976,VALID,71,VALID,0.93285,
2004-06-13, 02:40:00,VALID,916.958,VALID,0,VALID,98.281,VALID,-0.0679233,VALID,15.926,VALID,69,VALID,1.03072,
2004-06-13, 02:41:00,VALID,916.964,VALID,0,VALID,98.8838,VALID,-0.0339617,VALID,16.0299,VALID,82,VALID,0.811384,
2004-06-13, 02:42:00,VALID,916.977,VALID,0,VALID,98.6511,VALID,-0.0509425,VALID,16.0787,VALID,108,VALID,0.895531,
2004-06-13, 02:43:00,VALID,916.985,VALID,0,VALID,98.9741,VALID,-0.0509425,VALID,16.1232,VALID,125,VALID,1.18259,
2004-06-13, 02:44:00,VALID,916.995,VALID,0,VALID,98.9817,VALID,-0.0679233,VALID,16.2622,VALID,121,VALID,1.27325,
2004-06-13, 02:45:00,VALID,916.98,VALID,0,VALID,98.4692,VALID,-0.0339617,VALID,16.3888,VALID,129,VALID,1.19885,
2004-06-13, 02:46:00,VALID,916.984,VALID,0,VALID,97.8271,VALID,-0.0509425,VALID,16.4753,VALID,136,VALID,1.34208,
2004-06-13, 02:47:00,VALID,916.986,VALID,0,VALID,97.4799,VALID,0,VALID,16.5881,VALID,131,VALID,1.42347,
2004-06-13, 02:48:00,VALID,916.98,VALID,0,VALID,96.8912,VALID,0,VALID,16.6819,VALID,128,VALID,1.50195,
2004-06-13, 02:49:00,VALID,916.967,VALID,0,VALID,96.2083,VALID,-0.0679233,VALID,16.769,VALID,124,VALID,1.33848,
2004-06-13, 02:50:00,VALID,916.971,VALID,0,VALID,95.687,VALID,-0.0679233,VALID,16.8535,VALID,133,VALID,1.34375,
2004-06-13, 02:51:00,VALID,916.965,VALID,0,VALID,95.1847,VALID,-0.0509425,VALID,16.9048,VALID,139,VALID,1.18824,
2004-06-13, 02:52:00,VALID,916.961,VALID,0,VALID,95.0016,VALID,-0.0509425,VALID,16.9659,VALID,140,VALID,1.31436,
2004-06-13, 02:53:00,VALID,916.95,VALID,0,VALID,94.7867,VALID,-0.0849042,VALID,17.0048,VALID,135,VALID,1.45331,
2004-06-13, 02:54:00,VALID,916.951,VALID,0,VALID,94.5502,VALID,0,VALID,17.0336,VALID,136,VALID,1.19085,
2004-06-13, 02:55:00,VALID,916.943,VALID,0,VALID,94.5781,VALID,-0.0509425,VALID,17.0569,VALID,139,VALID,1.03277,
2004-06-13, 02:56:00,VALID,916.906,VALID,0,VALID,94.4764,VALID,-0.0679233,VALID,17.0435,VALID,131,VALID,1.12184,
2004-06-13, 02:57:00,VALID,916.89,VALID,0,VALID,94.2106,VALID,-0.0509425,VALID,17.0336,VALID,134,VALID,0.90532,
2004-06-13, 02:58:00,VALID,916.898,VALID,0,VALID,94.025,VALID,-0.0509425,VALID,17.0044,VALID,133,VALID,0.895703,
2004-06-13, 02:59:00,VALID,916.896,VALID,0,VALID,94.0504,VALID,-0.0169808,VALID,16.9751,VALID,136,VALID,0.787791,
2004-06-13, 03:00:00,VALID,916.888,VALID,0,VALID,93.8431,VALID,-0.0169808,VALID,16.9433,VALID,134,VALID,0.904204,
2004-06-13, 03:01:00,VALID,916.865,VALID,0,VALID,94.0021,VALID,-0.0339617,VALID,16.8946,VALID,129,VALID,1.15962,
2004-06-13, 03:02:00,VALID,916.85,VALID,0,VALID,94.0886,VALID,-0.0509425,VALID,16.8721,VALID,124,VALID,1.02214,
2004-06-13, 03:03:00,VALID,916.84,VALID,0,VALID,93.7389,VALID,-0.0509425,VALID,16.8714,VALID,128,VALID,1.05432,
2004-06-13, 03:04:00,VALID,916.837,VALID,0,VALID,93.3498,VALID,-0.0339617,VALID,16.8658,VALID,127,VALID,1.0657,
2004-06-13, 03:05:00,VALID,916.827,VALID,0,VALID,93.0166,VALID,-0.0339617,VALID,16.8172,VALID,116,VALID,0.716797,
2004-06-13, 03:06:00,VALID,916.842,VALID,0,VALID,93.6193,VALID,-0.0339617,VALID,16.743,VALID,115,VALID,0.695135,
2004-06-13, 03:07:00,VALID,916.836,VALID,0,VALID,94.1089,VALID,0,VALID,16.6718,VALID,118,VALID,0.849657,
2004-06-13, 03:08:00,VALID,916.831,VALID,0,VALID,94.0174,VALID,-0.0169808,VALID,16.6335,VALID,124,VALID,1.0061,
2004-06-13, 03:09:00,VALID,916.824,VALID,0,VALID,93.908,VALID,-0.0169808,VALID,16.6012,VALID,126,VALID,1.21146,
2004-06-13, 03:10:00,VALID,916.819,VALID,0,VALID,93.5837,VALID,-0.0339617,VALID,16.6335,VALID,127,VALID,1.28533,
2004-06-13, 03:11:00,VALID,916.82,VALID,0,VALID,93.1374,VALID,-0.0509425,VALID,16.6754,VALID,124,VALID,1.3657,
2004-06-13, 03:12:00,VALID,916.816,VALID,0,VALID,92.6936,VALID,-0.0509425,VALID,16.7174,VALID,130,VALID,1.32203,
2004-06-13, 03:13:00,VALID,916.816,VALID,0,VALID,92.4418,VALID,-0.0169808,VALID,16.7397,VALID,131,VALID,1.14098,
2004-06-13, 03:14:00,VALID,916.802,VALID,0,VALID,92.1723,VALID,-0.0169808,VALID,16.7301,VALID,122,VALID,0.831143,
2004-06-13, 03:15:00,VALID,916.773,VALID,0,VALID,92.5461,VALID,-0.0679233,VALID,16.6823,VALID,118,VALID,0.63681,
2004-06-13, 03:16:00,VALID,916.774,VALID,0,VALID,92.9428,VALID,-0.0169808,VALID,16.5849,VALID,118,VALID,0.671094,
2004-06-13, 03:17:00,VALID,916.763,VALID,0,VALID,93.2302,VALID,-0.0169808,VALID,16.5074,VALID,118,VALID,0.805537,
2004-06-13, 03:18:00,VALID,916.742,VALID,0,VALID,93.4617,VALID,-0.0509425,VALID,16.4205,VALID,124,VALID,1.05449,
2004-06-13, 03:19:00,VALID,916.738,VALID,0,VALID,93.9271,VALID,-0.0509425,VALID,16.3624,VALID,121,VALID,1.09248,
2004-06-13, 03:20:00,VALID,916.738,VALID,0,VALID,94.7091,VALID,-0.0509425,VALID,16.3751,VALID,120,VALID,1.10499,
2004-06-13, 03:21:00,VALID,916.75,VALID,0,VALID,94.8083,VALID,-0.0509425,VALID,16.43,VALID,120,VALID,1.01963,
2004-06-13, 03:22:00,VALID,916.744,VALID,0,VALID,94.6926,VALID,-0.0339617,VALID,16.4267,VALID,120,VALID,1.09996,
2004-06-13, 03:23:00,VALID,916.743,VALID,0,VALID,94.7155,VALID,-0.0169808,VALID,16.43,VALID,119,VALID,1.22638,
2004-06-13, 03:24:00,VALID,916.742,VALID,0,VALID,94.5476,VALID,-0.0169808,VALID,16.4715,VALID,117,VALID,1.03563,
2004-06-13, 03:25:00,VALID,916.75,VALID,0,VALID,94.2615,VALID,-0.0509425,VALID,16.5207,VALID,119,VALID,0.782552,
2004-06-13, 03:26:00,VALID,916.748,VALID,0,VALID,94.264,VALID,-0.0509425,VALID,16.5238,VALID,113,VALID,0.742746,
2004-06-13, 03:27:00,VALID,916.734,VALID,0,VALID,94.4421,VALID,-0.0169808,VALID,16.5102,VALID,86,VALID,0.94407,
2004-06-13, 03:28:00,VALID,916.737,VALID,0,VALID,94.3836,VALID,-0.0339617,VALID,16.5625,VALID,88,VALID,1.12482,
2004-06-13, 03:29:00,VALID,916.712,VALID,0,VALID,93.5189,VALID,-0.0509425,VALID,16.7038,VALID,96,VALID,1.26012,
2004-06-13, 03:30:00,VALID,916.723,VALID,0,VALID,92.0298,VALID,-0.0509425,VALID,16.9267,VALID,94,VALID,1.16025,
2004-06-13, 03:31:00,VALID,916.717,VALID,0,VALID,90.7722,VALID,-0.0339617,VALID,17.0721,VALID,98,VALID,0.710156,